Location: Castellare
(42.4669°N, 9.4728°E)
Time: 19:00:42
(UTC+00:00)

Cosmos 1000 Rocket - Pass Details

Date: 17 February 2020
Orbit: 954 x 992 km, 82.9° (Epoch: 05 April)

Event Time Altitude Azimuth Distance (km) Brightness Sun altitude
Rises 05:04:01 0° 190° (S) 3,620 7.4 -14.1°
Reaches altitude 10° 05:06:30 10° 192° (SSW) 2,681 6.7 -13.6°
Maximum altitude 05:12:38 76° 278° (W) 994 4.4 -12.5°
Drops below altitude 10° 05:18:53 10° 5° (N) 2,722 6.8 -11.3°
Sets 05:21:25 0° 7° (N) 3,679 7.5 -10.9°
